Plymouth, NH

12:39 PM EDT on May 26, 2017 (GMT -0400)
Plymouth

Weather History for K1P1 - January, 2013

Change the Weather History Date:

Tuesday, January 8, 2013

  Actual Average (KLCI) Record (KLCI)
Temperature  
Mean Temperature 15 °F -  
Max Temperature 33 °F 28 °F 60 °F (2008)
Min Temperature -3 °F 12 °F -11 °F (2015)
Degree Days  
Heating Degree Days 50    
Moisture  
Dew Point 7 °F    
Average Humidity 82    
Maximum Humidity 95    
Minimum Humidity 51    
Precipitation  
Precipitation 0.00 in - - ()
Sea Level Pressure  
Sea Level Pressure 30.27 in    
Wind  
Wind Speed 0 mph (SW)    
Max Wind Speed 5 mph    
Max Gust Speed -    
Visibility 9 miles    
Events      
Averages and records for this station are not official NWS values.
T = Trace of Precipitation, MM = Missing Value Source: NWS Daily Summary

Daily Weather History Graph

Daily Weather History Graph

Search for Another Location

Airport or City:

Trip Planner

Search our weather history database for the weather conditions in past years. The results will help you decide how hot, cold, wet, or windy it might be!

Date:

Astronomy

Jan. 08, 2013 Rise Set
Actual Time 7:20 AM EST 4:27 PM EST
Civil Twilight 6:47 AM EST 5:00 PM EST
Nautical Twilight 6:12 AM EST 5:35 PM EST
Astronomical Twilight 5:37 AM EST 6:10 PM EST
Moon 3:49 AM EST (1/8) 1:27 PM EST (1/8)
Length of Visible Light 10h 12m
Length of Day
9h 07m
Waning Crescent, 14% of the Moon is Illuminated
Jan 8
Waning Crescent
Jan 11
New
Jan 18
First Quarter
Jan 26
Full
Feb 3
Last Quarter

Hourly Weather History & Observations

Time (EST) Temp. Windchill Dew Point Humidity Pressure Visibility Wind Dir Wind Speed Gust Speed Precip Events Conditions
12:15 AM 1.6 °F - -1.5 °F 87% 30.32 in 10.0 mi Calm Calm - N/A   Unknown
12:35 AM 1.2 °F - -1.8 °F 87% 30.32 in 10.0 mi Calm Calm - N/A   Unknown
12:55 AM 0.9 °F - -2.2 °F 87% 30.31 in 10.0 mi Calm Calm - N/A   Unknown
1:15 AM 0.5 °F - -2.4 °F 88% 30.31 in 10.0 mi Calm Calm - N/A   Unknown
1:35 AM 0.1 °F - -2.9 °F 87% 30.30 in 10.0 mi Calm Calm - N/A   Unknown
1:55 AM 0.1 °F - -2.9 °F 87% 30.31 in 10.0 mi Calm Calm - N/A   Unknown
2:15 AM -0.6 °F - -3.6 °F 87% 30.30 in 10.0 mi Calm Calm - N/A   Unknown
2:35 AM -1.3 °F - -4.2 °F 88% 30.29 in 7.0 mi Calm Calm - N/A   Unknown
2:55 AM -0.6 °F - -3.6 °F 87% 30.29 in 10.0 mi Calm Calm - N/A   Unknown
3:15 AM -1.3 °F - -4.5 °F 86% 30.28 in 10.0 mi Calm Calm - N/A   Unknown
3:35 AM -1.3 °F - -4.5 °F 86% 30.28 in 10.0 mi Calm Calm - N/A   Unknown
3:55 AM -2.0 °F - -5.1 °F 87% 30.28 in 7.0 mi Calm Calm - N/A   Unknown
4:15 AM -2.2 °F - -5.6 °F 85% 30.27 in 7.0 mi Calm Calm - N/A   Unknown
4:35 AM -2.4 °F - -5.6 °F 86% 30.26 in 7.0 mi Calm Calm - N/A   Unknown
4:55 AM -2.9 °F - -6.2 °F 86% 30.26 in 10.0 mi Calm Calm - N/A   Unknown
5:15 AM -2.4 °F - -5.8 °F 85% 30.26 in 10.0 mi Calm Calm - N/A   Unknown
5:35 AM -2.9 °F - -6.0 °F 87% 30.26 in 10.0 mi Calm Calm - N/A   Unknown
5:55 AM -3.1 °F - -6.7 °F 85% 30.26 in 10.0 mi Calm Calm - N/A   Unknown
6:15 AM -2.9 °F - -6.2 °F 86% 30.27 in 10.0 mi Calm Calm - N/A   Unknown
6:35 AM -2.7 °F - -6.0 °F 86% 30.27 in 10.0 mi Calm Calm - N/A   Unknown
6:55 AM -3.1 °F - -6.2 °F 87% 30.27 in 10.0 mi Calm Calm - N/A   Unknown
7:15 AM -2.6 °F - -5.8 °F 86% 30.27 in 10.0 mi Calm Calm - N/A   Unknown
7:35 AM -2.7 °F - -6.0 °F 86% 30.27 in 7.0 mi Calm Calm - N/A   Unknown
7:55 AM -2.2 °F - -5.4 °F 86% 30.27 in 7.0 mi Calm Calm - N/A   Unknown
8:15 AM -1.3 °F - -4.5 °F 86% 30.28 in 7.0 mi Calm Calm - N/A   Unknown
8:35 AM -0.9 °F - -4.2 °F 86% 30.28 in 7.0 mi Calm Calm - N/A   Unknown
8:55 AM -0.2 °F - -3.5 °F 86% 30.28 in 5.0 mi Calm Calm - N/A   Mist
9:15 AM 1.0 °F - -2.0 °F 87% 30.27 in 7.0 mi Calm Calm - N/A   Unknown
9:35 AM 3.0 °F - -0.0 °F 87% 30.27 in 7.0 mi Calm Calm - N/A   Unknown
9:55 AM 5.2 °F - 2.3 °F 88% 30.27 in 7.0 mi Calm Calm - N/A   Unknown
10:15 AM 6.8 °F - 4.1 °F 89% 30.27 in 10.0 mi Calm Calm - N/A   Unknown
10:35 AM 8.2 °F - 5.2 °F 87% 30.26 in 10.0 mi Calm Calm - N/A   Unknown
10:55 AM 9.9 °F - 7.0 °F 88% 30.25 in 10.0 mi Calm Calm - N/A   Unknown
11:15 AM 11.7 °F - 7.9 °F 85% 30.24 in 10.0 mi Calm Calm - N/A   Unknown
11:35 AM 14.7 °F - 9.0 °F 78% 30.23 in 10.0 mi Calm Calm - N/A   Unknown
11:55 AM 16.5 °F - 9.5 °F 74% 30.23 in 10.0 mi Calm Calm - N/A   Unknown
12:15 PM 19.9 °F - 11.3 °F 69% 30.22 in 10.0 mi Calm Calm - N/A   Unknown
12:35 PM 21.7 °F - 12.0 °F 66% 30.21 in 10.0 mi Calm Calm - N/A   Unknown
12:55 PM 23.7 °F - 13.3 °F 64% 30.21 in 10.0 mi Calm Calm - N/A   Unknown
1:15 PM 26.1 °F - 13.8 °F 60% 30.20 in 10.0 mi Calm Calm - N/A   Unknown
1:35 PM 28.4 °F - 15.4 °F 58% 30.20 in 10.0 mi Calm Calm - N/A   Unknown
1:55 PM 29.8 °F - 14.9 °F 54% 30.20 in 10.0 mi Calm Calm - N/A   Unknown
2:15 PM 31.3 °F - 14.9 °F 51% 30.20 in 10.0 mi Calm Calm - N/A   Unknown
2:55 PM 33.3 °F - 17.2 °F 52% 30.21 in 10.0 mi Calm Calm - N/A   Unknown
3:15 PM 32.9 °F - 18.0 °F 54% 30.21 in 10.0 mi Calm Calm - N/A   Unknown
3:35 PM 31.3 °F 27.9 °F 18.3 °F 59% 30.22 in 10.0 mi SSE 3.5 mph - N/A   Unknown
3:55 PM 29.3 °F - 18.3 °F 64% 30.23 in 10.0 mi Calm Calm - N/A   Unknown
4:15 PM 28.2 °F - 18.5 °F 67% 30.24 in 10.0 mi Calm Calm - N/A   Unknown
4:35 PM 26.4 °F - 18.5 °F 72% 30.24 in 10.0 mi Calm Calm - N/A   Unknown
4:55 PM 25.2 °F 20.9 °F 18.1 °F 75% 30.25 in 10.0 mi WSW 3.5 mph - N/A   Unknown
5:15 PM 24.3 °F - 18.1 °F 77% 30.25 in 10.0 mi Calm Calm - N/A   Unknown
5:35 PM 22.6 °F - 17.8 °F 82% 30.27 in 10.0 mi Calm Calm - N/A   Unknown
5:55 PM 21.4 °F 15.1 °F 17.6 °F 85% 30.27 in 10.0 mi SW 4.6 mph - N/A   Unknown
6:15 PM 21.0 °F - 17.4 °F 86% 30.29 in 10.0 mi Calm Calm - N/A   Unknown
6:35 PM 21.4 °F - 17.4 °F 85% 30.29 in 10.0 mi Calm Calm - N/A   Unknown
6:55 PM 20.7 °F - 17.2 °F 87% 30.29 in 10.0 mi Calm Calm - N/A   Unknown
7:15 PM 19.9 °F - 16.9 °F 88% 30.30 in 10.0 mi Calm Calm - N/A   Unknown
7:35 PM 19.8 °F 13.2 °F 16.0 °F 85% 30.30 in 10.0 mi SW 4.6 mph - N/A   Unknown
7:55 PM 17.8 °F - 15.8 °F 92% 30.30 in 10.0 mi Calm Calm - N/A   Unknown
8:15 PM 18.0 °F - 15.1 °F 88% 30.32 in 10.0 mi Calm Calm - N/A   Unknown
8:35 PM 19.2 °F - 17.1 °F 91% 30.32 in 10.0 mi Calm Calm - N/A   Unknown
8:55 PM 17.4 °F - 14.9 °F 90% 30.32 in 10.0 mi Calm Calm - N/A   Unknown
9:15 PM 16.9 °F - 15.3 °F 93% 30.32 in 10.0 mi Calm Calm - N/A   Unknown
9:35 PM 16.0 °F - 14.5 °F 94% 30.32 in 10.0 mi Calm Calm - N/A   Unknown
9:55 PM 14.9 °F - 13.8 °F 95% 30.32 in 10.0 mi Calm Calm - N/A   Unknown
10:15 PM 15.6 °F - 14.5 °F 95% 30.33 in 10.0 mi Calm Calm - N/A   Unknown
10:35 PM 16.0 °F - 14.7 °F 95% 30.34 in 7.0 mi Calm Calm - N/A   Unknown
10:55 PM 14.5 °F - 13.1 °F 94% 30.34 in 7.0 mi Calm Calm - N/A   Unknown
11:15 PM 16.2 °F - 14.9 °F 95% 30.34 in 10.0 mi Calm Calm - N/A   Unknown
11:35 PM 15.3 °F - 13.6 °F 93% 30.35 in 7.0 mi Calm Calm - N/A   Unknown
11:55 PM 14.9 °F - 13.3 °F 93% 30.35 in 7.0 mi Calm Calm - N/A   Unknown